Sheldon, IA

8:39 PM CST on February 13, 2016 (GMT -0600)
Sheldon Municipal

Weather History for KSHL - October, 2011

Change the Weather History Date:

Thursday, October 13, 2011

  Actual Average Record
Temperature  
Mean Temperature 56 °F -  
Max Temperature 69 °F 62 °F 88 °F (1975)
Min Temperature 44 °F 39 °F 20 °F (1979)
Degree Days  
Heating Degree Days 8    
Growing Degree Days 6 (Base 50)    
Moisture  
Dew Point 38 °F    
Average Humidity 58    
Maximum Humidity 87    
Minimum Humidity 26    
Precipitation  
Precipitation 0.00 in - - ()
Sea Level Pressure  
Sea Level Pressure 29.77 in    
Wind  
Wind Speed 10 mph (NW)    
Max Wind Speed 25 mph    
Max Gust Speed 33 mph    
Visibility 10 miles    
Events      
Averages and records for this station are not official NWS values.
T = Trace of Precipitation, MM = Missing Value Source: NWS Daily Summary

Daily Weather History Graph

Daily Weather History Graph

Search for Another Location

Airport or City:

Trip Planner

Search our weather history database for the weather conditions in past years. The results will help you decide how hot, cold, wet, or windy it might be!

Date:

Astronomy

Oct. 13, 2011 Rise Set
Actual Time 7:34 AM CDT 6:44 PM CDT
Civil Twilight 7:05 AM CDT 7:12 PM CDT
Nautical Twilight 6:32 AM CDT 7:45 PM CDT
Astronomical Twilight 5:59 AM CDT 8:18 PM CDT
Moon 7:15 PM CDT (10/13) 9:11 AM CDT (10/13)
Length of Visible Light 12h 06m
Length of Day
11h 09m
Full, 98% of the Moon is Illuminated
Oct 13
Full
Oct 19
Last Quarter
Oct 26
New
Nov 2
First Quarter
Nov 10
Full

Hourly Weather History & Observations

Time (CDT) Temp. Windchill Dew Point Humidity Pressure Visibility Wind Dir Wind Speed Gust Speed Precip Events Conditions
12:15 AM 48.2 °F - 42.8 °F 82% 29.76 in 10.0 mi NW 6.9 mph - N/A   Clear
12:35 AM 48.2 °F - 42.8 °F 82% 29.76 in 10.0 mi WNW 5.8 mph - N/A   Clear
1:15 AM 48.2 °F - 42.8 °F 82% 29.76 in 10.0 mi WNW 6.9 mph - N/A   Clear
1:55 AM 44.6 °F 43.1 °F 41.0 °F 87% 29.76 in 10.0 mi NNW 3.5 mph - N/A   Clear
2:35 AM 48.2 °F - 42.8 °F 82% 29.77 in 10.0 mi WNW 8.1 mph - N/A   Clear
3:15 AM 46.4 °F 42.4 °F 41.0 °F 81% 29.77 in 10.0 mi NW 8.1 mph - N/A   Clear
3:35 AM 46.4 °F 42.9 °F 42.8 °F 87% 29.77 in 10.0 mi WNW 6.9 mph - N/A   Clear
3:55 AM 46.4 °F 44.3 °F 42.8 °F 87% 29.77 in 10.0 mi NW 4.6 mph - N/A   Clear
4:15 AM 46.4 °F 41.9 °F 42.8 °F 87% 29.77 in 10.0 mi WNW 9.2 mph - N/A   Clear
4:35 AM 46.4 °F 42.4 °F 42.8 °F 87% 29.77 in 10.0 mi NW 8.1 mph - N/A   Clear
4:55 AM 46.4 °F 42.4 °F 42.8 °F 87% 29.78 in 10.0 mi WNW 8.1 mph - N/A   Clear
5:15 AM 46.4 °F 42.4 °F 42.8 °F 87% 29.78 in 10.0 mi WNW 8.1 mph - N/A   Clear
5:35 AM 46.4 °F 43.5 °F 41.0 °F 81% 29.78 in 10.0 mi NW 5.8 mph - N/A   Clear
5:55 AM 44.6 °F 40.7 °F 41.0 °F 87% 29.78 in 10.0 mi NW 6.9 mph - N/A   Clear
6:15 AM 44.6 °F 40.7 °F 41.0 °F 87% 29.78 in 10.0 mi NW 6.9 mph - N/A   Clear
6:35 AM 46.4 °F 41.5 °F 41.0 °F 81% 29.79 in 10.0 mi WNW 10.4 mph - N/A   Clear
6:55 AM 44.6 °F 40.2 °F 41.0 °F 87% 29.79 in 10.0 mi WNW 8.1 mph - N/A   Clear
7:15 AM 44.6 °F 41.4 °F 39.2 °F 81% 29.79 in 10.0 mi WNW 5.8 mph - N/A   Clear
7:35 AM 44.6 °F 39.7 °F 41.0 °F 87% 29.79 in 10.0 mi WNW 9.2 mph - N/A   Clear
7:55 AM 44.6 °F 40.7 °F 41.0 °F 87% 29.79 in 10.0 mi NW 6.9 mph - N/A   Clear
8:35 AM 46.4 °F 41.5 °F 42.8 °F 87% 29.80 in 10.0 mi NW 10.4 mph - N/A   Clear
8:55 AM 48.2 °F - 42.8 °F 82% 29.80 in 10.0 mi NW 9.2 mph - N/A   Clear
9:15 AM 50.0 °F - 42.8 °F 76% 29.80 in 10.0 mi NW 10.4 mph - N/A   Clear
9:35 AM 51.8 °F - 44.6 °F 76% 29.80 in 10.0 mi NW 10.4 mph - N/A   Clear
9:55 AM 53.6 °F - 44.6 °F 72% 29.80 in 10.0 mi NW 10.4 mph - N/A   Clear
10:15 AM 53.6 °F - 44.6 °F 72% 29.80 in 10.0 mi NW 10.4 mph - N/A   Clear
10:35 AM 55.4 °F - 44.6 °F 67% 29.80 in 10.0 mi NW 10.4 mph - N/A   Clear
10:55 AM 57.2 °F - 44.6 °F 63% 29.80 in 10.0 mi NW 12.7 mph - N/A   Clear
11:15 AM 59.0 °F - 44.6 °F 59% 29.80 in 10.0 mi NW 15.0 mph - N/A   Clear
11:35 AM 60.8 °F - 44.6 °F 55% 29.80 in 10.0 mi NW 13.8 mph 19.6 mph N/A   Clear
11:55 AM 60.8 °F - 44.6 °F 55% 29.79 in 10.0 mi WNW 18.4 mph - N/A   Clear
12:15 PM 62.6 °F - 44.6 °F 52% 29.79 in 10.0 mi NW 17.3 mph 21.9 mph N/A   Clear
12:35 PM 64.4 °F - 42.8 °F 45% 29.78 in 10.0 mi NW 15.0 mph - N/A   Clear
12:55 PM 64.4 °F - 42.8 °F 45% 29.78 in 10.0 mi WNW 12.7 mph 21.9 mph N/A   Clear
1:15 PM 66.2 °F - 41.0 °F 40% 29.77 in 10.0 mi WNW 16.1 mph - N/A   Clear
1:35 PM 66.2 °F - 41.0 °F 40% 29.76 in 10.0 mi WNW 17.3 mph 23.0 mph N/A   Clear
1:55 PM 66.2 °F - 37.4 °F 35% 29.75 in 10.0 mi WNW 17.3 mph 25.3 mph N/A   Scattered Clouds
2:15 PM 68.0 °F - 37.4 °F 33% 29.75 in 10.0 mi NW 21.9 mph 29.9 mph N/A   Clear
2:35 PM 66.2 °F - 35.6 °F 32% 29.74 in 10.0 mi NW 16.1 mph 25.3 mph N/A   Scattered Clouds
2:55 PM 68.0 °F - 33.8 °F 28% 29.73 in 10.0 mi NW 24.2 mph 33.4 mph N/A   Scattered Clouds
3:15 PM 69.8 °F - 33.8 °F 27% 29.73 in 10.0 mi WNW 24.2 mph 31.1 mph N/A   Scattered Clouds
3:35 PM 68.0 °F - 33.8 °F 28% 29.73 in 10.0 mi WNW 25.3 mph 29.9 mph N/A   Clear
3:55 PM 66.2 °F - 30.2 °F 26% 29.73 in 10.0 mi NW 21.9 mph 32.2 mph N/A   Clear
4:15 PM 66.2 °F - 30.2 °F 26% 29.73 in 10.0 mi NW 21.9 mph 33.4 mph N/A   Scattered Clouds
4:35 PM 66.2 °F - 30.2 °F 26% 29.73 in 10.0 mi NW 23.0 mph 29.9 mph N/A   Clear
4:55 PM 64.4 °F - 30.2 °F 28% 29.73 in 10.0 mi NW 16.1 mph 29.9 mph N/A   Scattered Clouds
5:15 PM 64.4 °F - 30.2 °F 28% 29.73 in 10.0 mi NW 21.9 mph 28.8 mph N/A   Scattered Clouds
5:35 PM 64.4 °F - 30.2 °F 28% 29.73 in 10.0 mi NW 18.4 mph 26.5 mph N/A   Clear
5:55 PM 62.6 °F - 30.2 °F 30% 29.73 in 10.0 mi NW 19.6 mph 23.0 mph N/A   Scattered Clouds
6:15 PM 62.6 °F - 30.2 °F 30% 29.73 in 10.0 mi NW 12.7 mph 18.4 mph N/A   Clear
6:35 PM 60.8 °F - 30.2 °F 31% 29.74 in 10.0 mi NW 10.4 mph - N/A   Clear
6:55 PM 59.0 °F - 30.2 °F 34% 29.74 in 10.0 mi NW 11.5 mph - N/A   Clear
7:15 PM 57.2 °F - 28.4 °F 33% 29.75 in 10.0 mi NW 11.5 mph - N/A   Clear
7:35 PM 57.2 °F - 26.6 °F 31% 29.75 in 10.0 mi WNW 10.4 mph - N/A   Clear
7:55 PM 55.4 °F - 28.4 °F 36% 29.75 in 10.0 mi WNW 8.1 mph - N/A   Clear
8:15 PM 51.8 °F - 30.2 °F 44% 29.76 in 10.0 mi WNW 9.2 mph - N/A   Clear
8:35 PM 51.8 °F - 30.2 °F 44% 29.76 in 10.0 mi WNW 9.2 mph - N/A   Clear
8:55 PM 51.8 °F - 30.2 °F 44% 29.77 in 10.0 mi WNW 10.4 mph - N/A   Clear
9:15 PM 51.8 °F - 30.2 °F 44% 29.77 in 10.0 mi WNW 10.4 mph - N/A   Clear
9:35 PM 51.8 °F - 30.2 °F 44% 29.77 in 10.0 mi WNW 10.4 mph - N/A   Clear
9:55 PM 50.0 °F - 32.0 °F 50% 29.78 in 10.0 mi WNW 10.4 mph - N/A   Clear
10:15 PM 50.0 °F - 32.0 °F 50% 29.78 in 10.0 mi WNW 10.4 mph - N/A   Clear
10:35 PM 50.0 °F - 33.8 °F 54% 29.78 in 10.0 mi WNW 10.4 mph - N/A   Clear
10:55 PM 51.8 °F - 33.8 °F 50% 29.78 in 10.0 mi WNW 12.7 mph - N/A   Clear
11:15 PM 50.0 °F - 33.8 °F 54% 29.79 in 10.0 mi NW 10.4 mph - N/A   Clear
11:35 PM 48.2 °F - 33.8 °F 58% 29.79 in 10.0 mi WNW 8.1 mph - N/A   Clear
11:55 PM 46.4 °F 42.4 °F 33.8 °F 62% 29.79 in 10.0 mi WNW 8.1 mph - N/A   Clear